Aeroporto :
LOGIN :

Iscrizione | Disclaimer

   EN    FR    IT 

 










Sommario :    VFR   VFR Marginale   IFR   IFR Intensivo   IFR Molto Intensivo
Visibilità : 
Base nubi : 
>= 8 km
>= 3000ft
5 / 8 km
1000 / 3000 ft
1500m / 5 km
500 / 1000 ft
800 / 1500m
200 / 500 ft
< 800m
< 200 ft
Simboli :   Temporali  Nebbia  Neve Forte  Precipitazioni Forti  Vento > 20 kt
SIGMETs :   Varie  Temporali  Ghiacco  Turbolenza  Onda orograficha  Ceneri Vulcaniche







- Altitudine del aeroporto : 184 ft
- Codice IATA : BRU


EBBR - Bruxelles

ULTIMO METAR :
  • 210750Z 08003KT 030V120 CAVOK 14/05 Q1022 NOSIG

METARs OBSOLETI :
  • 210720Z VRB02KT CAVOK 12/05 Q1022 NOSIG
  • 210650Z VRB02KT CAVOK 11/05 Q1022 NOSIG
  • 210620Z 03003KT 360V060 CAVOK 10/04 Q1022 NOSIG
  • 210550Z 01002KT CAVOK 09/04 Q1022 NOSIG
  • 210520Z 04003KT CAVOK 08/05 Q1022 NOSIG

TAF TAF EBBR
Valido dal 21 a 06 ore il 22 a 12 ore UTC


210510Z 2106/2212 07003KT CAVOK
Nessun NOTAM noto per questo aeroporto.



MetMap, La meteo Aeronautica in un colpo d'occhio ! - Copyright ORBIFLY Dicembre 2007 - Disclaimer

ORBIFLY MET'MAP TEAM :

Programmazione e sviluppo : Alexandra Zaïnal
Concezione e sviluppo : Baudouin d'Aumeries
Co-Programmazione e sviluppo : Marc-Olivier Méhu
Supporto tecnico e logistico : Manuel Goepfert
Aiuto per la traduzione : Arnaldo La Scala

Contatto : metmap@orbifly.com




FONTI E CREDITI :

   NOAA